Location: Dead Woman Crossing
(43.5369°N, 106.3228°W)
Time: 07:08:50
(UTC+00:00)

M-CUBED/EXP-1 PRIME - Pass Details

Date: 05 July 2022
Orbit: 422 x 631 km, 101.7° (Epoch: 14 August)

Event Time Altitude Azimuth Distance (km) Brightness Sun altitude
Exits shadow 08:53:05 34° 284° (WNW) 748 ? -19.6°
Drops below altitude 10° 08:55:40 10° 326° (NNW) 1,603 ? -19.4°
Sets 08:57:52 0° 335° (NNW) 2,515 ? -19.2°
